Regional Weather Roundup
Issued by NWS Goodland, KS

Home | Current Version | Previous Version | Text Only | Print | Product List | Glossary On
Versions: 1 2 3 4 5 6 7 8 9 10 11 12 13 14 15 16 17 18 19 20 21 22 23 24 25 26 27 28 29 30 31 32 33 34 35 36 37 38 39 40 41 42 43 44 45 46 47 48 49 50
000
ASUS43 KGLD 280508
RWRGLD

GOODLAND FORECAST AREA HOURLY WEATHER ROUNDUP
NATIONAL WEATHER SERVICE GOODLAND KS
1100 PM MDT WED JUL 27 2016

...OFFICIAL OBSERVATIONS...

CITY           SKY/WX    TMP DP  RH WIND       PRES   REMARKS
GOODLAND KS    TSTM      64  60  87 S15G21    30.10F
HILL CITY KS   CLOUDY    76  68  76 NE9       30.07R
IMPERIAL NEB   PTCLDY    74  66  76 E10       30.12S
MCCOOK NEB     CLOUDY    73  68  84 W8        30.10R
AKRON CO       CLEAR     66  59  78 SE8       30.19R
BURLINGTON CO  CLEAR     71  62  73 SE9       30.16S
LIMON CO       LGT RAIN  69  59  70 SE10      30.24R
$$

...UNOFFICIAL OBSERVATIONS...

CITY           SKY/WX    TMP DP  RH WIND       PRES   REMARKS
COLBY KS       LGT RAIN  75  70  83 SE10      30.11F
LENORA KS        N/A     74  32  21 MISG        N/A
NORTON KS      CLEAR     73  64  73 CALM      30.06F
SHARON SPRINGS   N/A     73  67  82 SE6G15      N/A
KIT CARSON CO    N/A     70  59  67 CALM        N/A
YUMA CO          N/A     67  62  83 CALM        N/A
$$




USA.gov is the U.S. government's official web portal to all federal, state and local government web resources and services.